DW3637 Weather Reports


Display with metric or nautical units.
time (UTC)temp
F
wind
direction
speed
MPH
gust
MPH
rain 1hr
in
rain 24hr
in
rain mn
in
humidity
%
barometer
mb
20260903153545 71 0.0 5.0 0.00 0.05 0.05 90 1013.1
20260903152537 71 0.0 1.0 0.00 0.05 0.05 90 1013.1
20260903151521 71 0.0 3.0 0.00 0.05 0.05 90 1013.1
20260903150537 71 0.0 3.0 0.00 0.05 0.05 91 1013.0
20260903145557 71 0.0 3.0 0.00 0.05 0.05 90 1013.2
20260903144518 70 0.0 2.0 0.00 0.05 0.05 92 1013.1
20260903143517 70 225 1.0 4.0 0.00 0.05 0.05 92 1013.1
20260903142518 69 293 1.0 5.0 0.00 0.05 0.05 93 1013.2
20260903141520 69 248 1.0 5.0 0.00 0.05 0.05 94 1013.3
20260903140524 68 0.0 2.0 0.00 0.05 0.05 96 1013.1
20260903135517 67 0.0 0.0 0.00 0.05 0.05 96 1013.3
20260903134517 67 0.0 0.0 0.00 0.05 0.05 97 1013.4
20260903133518 66 0.0 0.0 0.00 0.05 0.05 97 1013.5
20260903132537 66 0.0 0.0 0.00 0.05 0.05 97 1013.5
20260903131537 65 0.0 0.0 0.00 0.05 0.05 97 1013.8
20260903130517 65 0.0 0.0 0.00 0.05 0.05 97 1014.0
20260903125525 65 0.0 1.0 0.00 0.05 0.05 97 1014.0
20260903124517 65 0.0 1.0 0.00 0.05 0.05 97 1014.0
20260903123517 65 0.0 0.0 0.00 0.05 0.05 97 1014.0
20260903122526 64 0.0 0.0 0.00 0.05 0.05 97 1014.1
20260903121517 64 0.0 0.0 0.00 0.05 0.05 97 1014.3
20260903120522 64 0.0 0.0 0.00 0.05 0.05 97 1014.4
20260903115516 64 0.0 1.0 0.00 0.05 0.05 97 1014.5
20260903114537 64 0.0 0.0 0.00 0.05 0.05 96 1014.5
20260903113517 64 0.0 0.0 0.00 0.05 0.05 96 1014.7
20260903112517 64 0.0 0.0 0.00 0.05 0.05 96 1014.6
20260903111537 64 0.0 0.0 0.00 0.05 0.05 96 1014.6
20260903110519 63 0.0 0.0 0.00 0.05 0.05 96 1014.8
20260903105517 63 0.0 0.0 0.00 0.05 0.05 96 1014.6
20260903104516 63 0.0 0.0 0.00 0.05 0.05 96 1014.6
20260903103517 63 0.0 0.0 0.00 0.05 0.05 96 1014.7
20260903102519 63 0.0 0.0 0.00 0.05 0.05 96 1014.3
20260903101516 63 0.0 0.0 0.00 0.05 0.05 96 1014.2
20260903100518 63 0.0 0.0 0.00 0.05 0.05 96 1014.2
20260903095519 63 0.0 0.0 0.00 0.05 0.05 96 1014.2
20260903094518 63 0.0 0.0 0.00 0.05 0.05 96 1014.3
20260903093516 63 0.0 0.0 0.00 0.05 0.05 96 1014.2
20260903092544 63 0.0 0.0 0.00 0.05 0.05 95 1014.3
20260903091639 63 0.0 0.0 0.00 0.05 0.05 95 1014.4
20260903090557 63 0.0 0.0 0.00 0.05 0.05 95 1014.7
20260903085521 63 0.0 0.0 0.00 0.05 0.05 95 1014.8
20260903084523 63 0.0 0.0 0.00 0.05 0.05 95 1014.8
20260903083518 63 0.0 0.0 0.00 0.05 0.05 95 1014.8
20260903082544 63 0.0 0.0 0.00 0.05 0.05 95 1014.8
20260903081521 63 0.0 0.0 0.00 0.05 0.05 95 1014.8
20260903080518 63 0.0 0.0 0.00 0.05 0.05 95 1015.0
20260903075537 63 0.0 0.0 0.00 0.05 0.05 94 1014.9
20260903074526 63 0.0 0.0 0.00 0.05 0.05 94 1014.9
20260903073536 63 0.0 0.0 0.00 0.05 0.05 94 1014.9
20260903072535 63 0.0 0.0 0.00 0.05 0.05 94 1015.0
20260903071538 63 0.0 0.0 0.01 0.05 0.05 94 1015.1
20260903070529 63 0.0 1.0 0.02 0.05 0.05 93 1015.2
20260903065524 63 0.0 1.0 0.03 0.05 0.05 93 1014.9
20260903064518 63 0.0 1.0 0.05 0.05 0.05 93 1014.9
20260903063517 63 0.0 0.0 0.05 0.05 0.05 92 1015.1
20260903062559 63 0.0 0.0 0.05 0.05 0.05 91 1015.3
20260903061516 64 0.0 0.0 0.04 0.04 0.04 89 1015.8
20260903060516 64 0.0 1.0 0.03 0.03 0.03 88 1015.9
20260903055519 65 0.0 0.0 0.02 0.02 0.02 86 1016.3
20260903054517 65 0.0 1.0 0.00 0.00 0.00 85 1016.8
20260903053543 65 0.0 1.0 0.00 0.00 0.00 83 1017.0
20260903052516 66 0.0 1.0 0.00 0.00 0.00 82 1017.1
20260903051516 66 0.0 1.0 0.00 0.00 0.00 81 1017.2
20260903050519 66 0.0 3.0 0.00 0.00 0.00 81 1017.1
20260903045517 66 0.0 4.0 0.00 0.00 0.00 81 1017.4
20260903044518 66 0.0 1.0 0.00 0.00 0.00 80 1017.4
20260903043516 66 0.0 1.0 0.00 0.00 0.00 80 1017.2
20260903042517 67 0.0 1.0 0.00 0.00 0.00 80 1017.2
20260903041517 67 0.0 1.0 0.00 0.00 0.00 80 1017.4
20260903040518 66 0.0 0.0 0.00 0.00 0.00 80 1017.4
20260903040016 66 0.0 0.0 0.00 0.00 0.00 80 1017.4
20260903035018 67 0.0 1.0 0.00 0.00 0.00 80 1017.4
20260903034036 67 0.0 1.0 0.00 0.00 0.00 79 1017.2
20260903033017 67 0.0 0.0 0.00 0.00 0.00 77 1017.1
20260903032024 67 0.0 0.0 0.00 0.00 0.00 77 1017.0
20260903031020 67 0.0 1.0 0.00 0.00 0.00 76 1017.3
20260903030101 67 0.0 0.0 0.00 0.00 0.00 75 1017.4
20260903025040 67 0.0 1.0 0.00 0.00 0.00 73 1017.8
20260903024017 67 0.0 1.0 0.00 0.00 0.00 73 1018.0
20260903023017 68 0.0 0.0 0.00 0.00 0.00 72 1018.2
20260903022057 68 0.0 1.0 0.00 0.00 0.00 71 1018.5
20260903021036 68 0.0 0.0 0.00 0.00 0.00 71 1018.6
20260903020016 68 0.0 0.0 0.00 0.02 0.00 70 1018.8
20260903015016 68 0.0 1.0 0.00 0.02 0.00 70 1018.7
20260903014017 68 0.0 0.0 0.00 0.02 0.00 70 1018.8
20260903013017 68 0.0 1.0 0.00 0.02 0.00 70 1018.8
20260903012017 68 0.0 0.0 0.00 0.02 0.00 70 1018.6
20260903011016 69 0.0 1.0 0.00 0.02 0.00 69 1018.1
20260903010016 69 0.0 1.0 0.00 0.02 0.00 69 1017.8
20260903005016 69 0.0 1.0 0.00 0.02 0.00 71 1017.8
20260903004021 69 0.0 2.0 0.00 0.02 0.00 71 1018.1
20260903003016 69 0.0 1.0 0.00 0.02 0.00 74 1018.2
20260903002019 70 0.0 1.0 0.00 0.02 0.00 75 1018.5
20260903001036 70 0.0 1.0 0.00 0.02 0.00 74 1018.3
20260903000022 70 0.0 1.0 0.00 0.02 0.00 74 1018.3
20260902235022 70 0.0 1.0 0.00 0.02 0.00 72 1018.1
20260902234040 71 0.0 0.0 0.00 0.02 0.00 71 1018.2
20260902233019 71 0.0 1.0 0.00 0.02 0.00 70 1018.3
20260902232017 71 0.0 0.0 0.00 0.02 0.00 69 1018.6
20260902231016 71 0.0 2.0 0.00 0.02 0.00 70 1019.1
20260902230016 72 0.0 1.0 0.00 0.02 0.00 74 1019.3
20260902225019 72 0.0 0.0 0.00 0.02 0.00 73 1019.3
20260902224017 72 0.0 0.0 0.00 0.02 0.00 73 1019.5
20260902223016 72 0.0 4.0 0.00 0.02 0.00 72 1019.5
20260902222016 73 225 1.0 4.0 0.00 0.02 0.00 72 1019.4
20260902221016 73 0.0 4.0 0.00 0.02 0.00 73 1019.2
20260902220036 73 0.0 1.0 0.00 0.02 0.00 73 1019.2
20260902215017 73 0.0 1.0 0.00 0.02 0.00 74 1019.2
20260902214037 73 0.0 1.0 0.00 0.02 0.00 73 1019.3
20260902213016 73 0.0 1.0 0.00 0.03 0.00 72 1019.1
20260902212036 73 0.0 2.0 0.00 0.03 0.00 71 1018.9
20260902211016 74 293 1.0 6.0 0.00 0.03 0.00 70 1019.0
20260902210017 74 0.0 0.0 0.00 0.03 0.00 71 1018.8
20260902205018 74 0.0 1.0 0.00 0.03 0.00 70 1018.9
20260902204038 74 0.0 1.0 0.00 0.04 0.00 70 1018.6
20260902203023 74 0.0 4.0 0.00 0.04 0.00 70 1018.9
20260902202019 74 0.0 1.0 0.00 0.04 0.00 69 1019.1
20260902201018 74 0.0 1.0 0.00 0.04 0.00 68 1019.1
20260902200021 74 0.0 1.0 0.00 0.04 0.00 69 1019.2
20260902195019 74 225 1.0 3.0 0.00 0.04 0.00 67 1019.3
20260902194018 74 0.0 1.0 0.00 0.04 0.00 69 1019.3
20260902193018 73 0.0 0.0 0.00 0.04 0.00 71 1019.5
20260902192018 73 0.0 2.0 0.00 0.05 0.00 70 1019.6
20260902191019 74 0.0 1.0 0.00 0.05 0.00 68 1019.7
20260902190021 74 0.0 3.0 0.00 0.05 0.00 69 1019.6
20260902185021 74 0.0 1.0 0.00 0.05 0.00 69 1019.6
20260902184019 74 0.0 1.0 0.00 0.05 0.00 68 1019.6
20260902183018 74 0.0 5.0 0.00 0.05 0.00 67 1019.6
20260902182018 76 0.0 1.0 0.00 0.06 0.00 65 1019.6
20260902181019 76 0.0 4.0 0.00 0.06 0.00 66 1019.8
20260902180038 76 0.0 3.0 0.00 0.06 0.00 64 1019.9
20260902175020 75 0.0 2.0 0.00 0.06 0.00 65 1019.9
20260902174020 75 0.0 2.0 0.00 0.06 0.00 66 1019.9
20260902173026 74 0.0 1.0 0.00 0.07 0.00 67 1020.0
20260902172021 74 68 1.0 4.0 0.00 0.07 0.00 68 1020.0
20260902171044 73 225 1.0 8.0 0.00 0.07 0.00 68 1020.0
20260902170021 73 0.0 4.0 0.00 0.08 0.00 70 1019.9
20260902165040 74 0.0 2.0 0.00 0.09 0.00 72 1020.0
20260902164020 73 0.0 1.0 0.00 0.18 0.00 72 1020.3
20260902163018 73 0.0 1.0 0.00 0.32 0.00 73 1020.5
20260902162038 71 0.0 1.0 0.00 0.32 0.00 76 1020.5
20260902161019 71 0.0 2.0 0.00 0.32 0.00 76 1020.5
20260902160017 71 0.0 3.0 0.00 0.32 0.00 76 1020.6
20260902155017 71 0.0 0.0 0.00 0.32 0.00 78 1020.7